WIDD

Batam

Airport
ICAO code
WIDD
Summary
ICAO Region
APAC
ICAO Territory
Location

Batam, Riau, Sumatra,

Coordinates
1° 7' 22" N , 104° 7' 12" E
KCC
Metar
WIDD 201700Z 19003KT 7000 FEW014 26/26 Q1011 NOSIG

Description

Hang Nadim Airport, also known as Hang Nadim International Airport, is located in Batam, Riau Islands (part of Sumatra), Indonesia. It is the only airport on the island.

Climatology

Tropical Rainforest climate (Köppen climate classification Af) - almost no distinct seasons, average daily temperature around 27°C throughout the year. Extensive cloud cover and heavy rainfall prevent temperatures from rising much over 33°C. The diurnal temperature change is between 2°C and 5°C which is greater than the annual temperature range of 2°C. Rainfall is heavy and is usually convectional and in the afternoon.

Airport map

Aerial View

SKYbrary Partners:

Safety knowledge contributed by: